"America/Chicago Time","Lifetime Energy (kWh)","Power (W)","AC Volts RMS (V) ","AC Amps RMS (mA)","Grid Frequency (Hz)","Inverter Temperature (C)"
"04/09/12 12:26:27","50.2122","75.2","215.79","370","60.0","13"
"04/09/12 12:31:28","50.2204","48.7","214.99","111","60.0","12"
"04/09/12 12:36:27","50.2204","46.8","214.48","419","60.03","11"
"04/09/12 12:41:27","50.2242","40.9","215.39","401","60.0","11"
"04/09/12 12:46:28","50.2278","47.3","215.38","178","60.03","10"
"04/09/12 12:51:29","50.2324","44.4","215.9","409","60.03","10"
"04/09/12 12:56:28","50.2357","40.9","215.53","297","60.03","9"
"04/09/12 13:01:27","50.2397","45.0","215.51","294","60.0","9"
"04/09/12 13:06:28","50.2443","60.9","215.11","417","60.0","9"
"04/09/12 13:11:28","50.2479","61.4","214.46","360","60.0","9"
"04/09/12 13:16:27","50.2511","37.3","214.25","155","60.03","9"
"04/09/12 13:21:27","50.2561","65.7","214.76","336","60.0","9"
"04/09/12 13:26:27","50.2608","43.6","214.72","324","60.03","9"
"04/09/12 13:31:27","50.2636","48.7","214.93","163","60.03","9"
"04/09/12 13:36:28","50.2669","61.2","215.49","122","60.0","9"
"04/09/12 13:41:28","50.2703","30.4","215.39","72","60.0","8"
"04/09/12 13:46:29","50.2729","53.4","214.6","319","60.03","8"
"04/09/12 13:51:27","50.2761","24.4","214.94","218","60.03","8"
"04/09/12 13:56:27","50.2783","14.5","215.49","28","60.0","8"
"04/09/12 14:01:27","50.2795","12.1","214.96","9","60.0","7"
"04/09/12 14:06:28","50.2808","13.2","214.84","76","60.03","7"
"04/09/12 14:11:28","50.2819","14.0","214.77","91","60.03","7"
"04/09/12 14:16:27","50.2827","0.0","215.27","36","60.03","6"
"04/09/12 14:21:28","50.2834","16.0","215.04","28","60.0","6"
"04/09/12 14:26:28","50.2841","12.7","214.3","100","59.96","6"
"04/09/12 14:31:29","50.2847","15.5","214.87","256","60.0","6"
"04/09/12 14:36:27","50.2866","27.1","215.32","108","60.03","6"
"04/09/12 14:41:28","50.2886","15.8","213.69","60","60.0","6"
"04/09/12 14:46:28","50.2908","37.9","215.17","292","60.03","6"
"04/09/12 14:51:27","50.2936","45.2","215.33","347","60.0","6"
"04/09/12 14:56:28","50.2996","94.6","216.41","459","60.03","7"
"04/09/12 15:01:28","50.3064","66.4","216.78","331","60.03","8"
"04/09/12 15:06:28","50.3123","71.1","215.93","358","60.03","8"
"04/09/12 15:11:28","50.3179","56.2","215.89","78","60.03","8"
"04/09/12 15:21:28","50.3294","174.8","218.08","792","60.03","9"
"04/09/12 15:26:28","50.3351","33.3","214.3","124","60.0","9"
"04/09/12 15:31:29","50.3383","69.5","215.53","351","60.03","8"
"04/09/12 15:36:27","50.3439","62.8","215.5","205","60.0","9"
"04/09/12 15:41:27","50.3475","30.8","214.9","259","60.03","8"
"04/09/12 15:46:27","50.3497","32.7","215.29","153","60.03","8"
"04/09/12 15:51:27","50.3518","33.1","214.83","83","60.03","7"
"04/09/12 15:56:27","50.3541","34.4","214.68","213","60.03","7"
"04/09/12 16:01:28","50.3557","13.9","214.33","18","60.03","7"
"04/09/12 16:06:28","50.3575","22.5","214.78","283","60.03","7"
"04/09/12 16:11:28","50.3601","40.8","215.98","361","60.0","6"
"04/09/12 16:16:27","50.3626","10.7","214.53","117","60.03","6"
"04/09/12 16:21:28","50.3633","14.5","214.25","2","60.03","6"
"04/09/12 16:26:27","50.3652","34.1","214.47","139","60.0","6"
"04/09/12 16:31:28","50.3679","36.5","214.81","116","60.0","6"
"04/09/12 16:36:28","50.3701","23.7","214.4","188","60.03","6"
"04/09/12 16:41:27","50.3723","31.2","214.61","240","60.0","6"
"04/09/12 16:46:27","50.3744","32.9","214.64","105","60.03","6"
"04/09/12 16:51:28","50.3763","25.2","214.59","53","60.03","6"
"04/09/12 16:56:28","50.3783","34.7","215.33","267","60.03","6"
"04/09/12 17:01:28","50.3812","41.0","215.64","168","60.07","6"
"04/09/12 17:06:27","50.3843","39.6","215.54","213","60.07","6"
"04/09/12 17:11:27","50.3867","27.7","215.34","162","60.03","7"
"04/09/12 17:16:28","50.389","29.6","214.87","237","60.03","7"
"04/09/12 17:21:28","50.391","23.0","214.74","306","60.03","7"
"04/09/12 17:26:27","50.3928","15.7","214.56","199","60.03","7"
"04/09/12 17:31:28","50.3946","14.5","214.19","50","60.0","7"
"04/09/12 17:36:28","50.3961","17.2","214.33","13","60.03","7"
"04/09/12 17:41:28","50.3972","11.8","213.58","52","60.03","7"
"04/09/12 17:46:28","50.3984","19.4","213.59","109","60.03","7"
"04/09/12 17:51:27","50.3994","12.7","213.21","120","60.03","6"
"04/09/12 17:56:27","50.4002","13.8","213.03","34","60.03","6"
"04/09/12 18:01:27","50.4007","0.0","214.02","0","60.03","6"
"04/09/12 18:06:27","50.4013","10.8","214.74","1","60.03","6"
"04/09/12 18:11:27","50.4019","12.3","213.33","14","60.03","6"
"04/09/12 18:16:29","50.4025","0.0","214.19","157","60.0","6"
"04/09/12 18:21:28","50.4028","13.8","213.81","21","60.0","6"
"04/09/12 18:26:27","50.4032","11.1","213.33","15","60.0","6"
"04/10/12 06:41:34","50.4033","0.0","213.03","0","60.0","0"
"04/10/12 07:06:27","50.4062","22.6","212.61","152","60.0","3"
"04/10/12 07:11:27","50.4075","11.3","213.23","13","60.03","3"
"04/10/12 07:16:29","50.4091","32.9","213.49","39","60.0","3"
"04/10/12 07:21:28","50.411","27.6","213.6","209","60.03","3"
"04/10/12 07:26:27","50.4133","26.9","214.4","200","60.03","4"
"04/10/12 07:31:28","50.4159","30.5","213.33","76","60.0","4"
"04/10/12 07:36:28","50.4188","36.1","213.63","151","60.03","4"
"04/10/12 07:41:29","50.4221","48.2","213.55","377","60.03","5"
"04/10/12 07:46:27","50.4257","41.0","214.97","314","60.03","5"
"04/10/12 07:51:28","50.4297","58.2","214.92","398","60.03","5"
"04/10/12 07:56:28","50.4341","49.8","214.99","229","60.03","6"
"04/10/12 08:01:28","50.4386","63.0","214.68","323","60.03","6"
"04/10/12 08:06:29","50.4436","67.2","214.79","343","60.0","6"
"04/10/12 08:11:28","50.4491","73.0","214.73","363","60.03","6"
"04/10/12 08:16:29","50.4549","77.5","214.59","385","60.03","6"
"04/10/12 08:21:29","50.461","81.5","215.26","403","60.03","6"
"04/10/12 08:26:27","50.4675","86.8","215.07","423","60.0","6"
"04/10/12 08:31:28","50.4745","90.3","215.68","441","60.03","7"
"04/10/12 08:36:29","50.4816","94.2","215.72","456","60.03","7"
"04/10/12 08:41:28","50.489","98.6","214.97","473","60.0","7"
"04/10/12 08:46:28","50.4968","96.5","214.62","469","60.0","8"
"04/10/12 08:51:28","50.5046","106.3","215.49","508","60.0","8"
"04/10/12 08:56:28","50.513","109.8","215.75","522","60.03","8"
"04/10/12 09:01:29","50.5216","112.9","216.11","532","60.0","9"
"04/10/12 09:06:27","50.5303","115.6","215.94","549","60.0","9"
"04/10/12 09:11:28","50.5385","107.7","215.58","517","60.03","9"
"04/10/12 09:16:29","50.547","108.0","215.6","516","60.03","9"
"04/10/12 09:21:29","50.5558","116.8","215.97","552","60.03","9"
"04/10/12 09:26:29","50.5655","130.0","217.47","605","60.0","9"
"04/10/12 09:31:28","50.5759","135.6","216.93","629","60.03","9"
"04/10/12 09:36:28","50.5864","139.1","217.53","647","60.07","10"
"04/10/12 09:41:28","50.5945","42.4","215.33","392","60.0","10"
"04/10/12 09:46:28","50.5978","37.7","215.14","373","60.0","9"
"04/10/12 09:51:28","50.6015","56.2","214.17","196","60.03","9"
"04/10/12 09:56:29","50.6054","53.7","214.25","362","60.03","8"
"04/10/12 10:01:27","50.6093","57.2","214.0","134","60.03","8"
"04/10/12 10:06:29","50.6134","59.4","213.95","127","60.03","8"
"04/10/12 10:11:27","50.6175","42.8","214.68","238","60.0","8"
"04/10/12 10:16:28","50.6218","72.5","214.01","297","60.0","8"
"04/10/12 10:21:28","50.6263","66.0","213.22","434","60.0","7"
"04/10/12 10:26:28","50.6312","69.2","214.44","350","60.03","7"
"04/10/12 10:31:28","50.6367","73.2","215.53","367","60.0","7"
"04/10/12 10:36:27","50.6419","64.7","215.46","328","60.0","8"
"04/10/12 10:41:28","50.6469","65.6","215.08","332","60.03","8"
"04/10/12 10:46:28","50.6519","67.4","215.2","343","60.03","8"
"04/10/12 10:51:28","50.6573","67.2","215.5","342","60.03","8"
"04/10/12 10:56:29","50.6625","48.8","215.13","247","60.03","8"
"04/10/12 11:01:29","50.6671","56.7","215.27","93","60.03","8"
"04/10/12 11:06:28","50.6716","50.8","215.26","111","60.0","8"
"04/10/12 11:16:29","50.6788","44.9","214.79","131","60.03","8"
"04/10/12 11:21:28","50.6818","45.7","215.4","284","60.03","7"
"04/10/12 11:26:29","50.6853","60.0","215.15","316","60.03","7"
"04/10/12 11:31:29","50.6895","64.5","214.04","381","60.0","7"
"04/10/12 11:36:28","50.6942","68.2","214.39","343","60.03","7"
"04/10/12 11:41:29","50.7015","110.7","215.6","527","60.03","7"
"04/10/12 11:46:28","50.7109","144.8","216.78","669","60.03","9"
"04/10/12 11:51:28","50.724","165.7","217.04","758","60.03","10"
"04/10/12 11:56:29","50.737","165.8","217.09","763","60.07","11"
"04/10/12 12:01:28","50.7494","176.4","217.16","808","60.03","12"
"04/10/12 12:06:29","50.7638","196.2","216.65","890","60.0","13"
"04/10/12 12:11:29","50.777","138.9","216.15","641","60.0","13"
"04/10/12 12:16:28","50.791","165.2","217.06","759","60.0","13"
"04/10/12 12:21:28","50.8005","84.8","214.73","416","60.0","13"
"04/10/12 12:26:28","50.8101","126.4","216.58","595","60.03","13"
"04/10/12 12:31:28","50.8164","62.8","213.82","416","60.03","11"
"04/10/12 12:36:28","50.8208","69.2","214.19","121","60.03","10"
"04/10/12 12:41:29","50.8254","41.6","214.38","289","60.03","9"
"04/10/12 12:46:28","50.8283","40.7","214.36","87","60.03","9"
"04/10/12 12:51:27","50.8314","50.6","213.37","362","60.0","8"
"04/10/12 12:56:28","50.8348","41.8","213.05","402","60.0","8"
"04/10/12 13:01:28","50.8392","62.6","215.65","321","60.0","7"
"04/10/12 13:06:28","50.8445","70.4","216.08","352","60.03","7"
"04/10/12 13:11:28","50.85","70.3","215.53","357","60.03","7"
"04/10/12 13:16:29","50.8569","95.2","216.11","457","60.0","8"
"04/10/12 13:21:28","50.8636","79.9","215.75","397","60.03","8"
"04/10/12 13:26:28","50.8698","80.8","215.35","398","60.03","8"
"04/10/12 13:31:28","50.8783","137.4","217.98","635","60.03","9"
"04/10/12 13:36:27","50.8884","114.0","217.41","541","60.03","9"
"04/10/12 13:41:28","50.8958","92.8","216.22","446","60.03","9"
"04/10/12 13:46:29","50.9075","153.5","217.81","704","60.03","10"
"04/10/12 13:51:27","50.9197","168.1","218.41","767","60.07","11"
"04/10/12 13:56:29","50.9315","149.7","218.88","688","60.0","12"
"04/10/12 14:01:29","50.9393","86.4","216.11","422","60.03","11"
"04/10/12 14:06:28","50.9468","77.6","215.62","385","60.0","11"
"04/10/12 14:11:29","50.9556","106.6","216.98","508","60.03","11"
"04/10/12 14:16:29","50.9633","87.1","216.84","421","60.0","11"
"04/10/12 14:21:28","50.9714","122.3","217.4","575","60.03","11"
"04/10/12 14:26:28","50.9795","103.4","217.09","494","60.0","10"
"04/10/12 14:31:28","50.9875","124.7","217.02","586","60.0","11"
"04/10/12 14:36:29","50.9961","110.8","216.75","524","60.03","11"
"04/10/12 14:41:29","51.0043","105.4","216.77","505","60.03","11"
"04/10/12 14:46:27","51.0132","100.9","216.84","481","60.0","11"
"04/10/12 14:51:28","51.0224","139.8","217.97","651","60.03","11"
"04/10/12 14:56:29","51.0348","187.0","219.03","842","60.0","13"
"04/10/12 15:01:28","51.0476","167.0","217.73","763","60.03","13"
"04/10/12 15:06:29","51.0596","148.4","217.38","682","60.0","14"
"04/10/12 15:11:29","51.0712","145.5","217.32","675","60.03","14"
"04/10/12 15:16:28","51.0824","142.6","218.08","663","60.0","14"
"04/10/12 15:21:28","51.0935","140.6","218.45","647","60.0","14"
"04/10/12 15:26:28","51.1042","138.9","218.19","641","60.0","14"
"04/10/12 15:31:28","51.1149","129.6","217.89","604","60.07","14"
"04/10/12 15:36:29","51.1248","112.1","217.13","534","60.03","13"
"04/10/12 15:41:28","51.1345","125.8","217.56","588","60.03","13"
"04/10/12 15:46:29","51.144","125.4","217.12","587","60.0","13"
"04/10/12 15:51:29","51.1537","121.9","217.29","575","60.0","13"
"04/10/12 15:56:28","51.163","119.9","217.31","568","60.07","13"
"04/10/12 16:01:29","51.1722","113.0","217.75","535","60.03","13"
"04/10/12 16:06:27","51.1803","102.3","216.54","490","60.03","12"
"04/10/12 16:11:28","51.1887","110.9","217.35","526","60.07","12"
"04/10/12 16:16:29","51.1968","78.0","216.47","382","60.0","12"
"04/10/12 16:21:28","51.2044","100.2","216.31","479","60.03","12"
"04/10/12 16:26:28","51.2119","95.8","216.42","460","60.03","12"
"04/10/12 16:31:29","51.2193","91.9","216.28","447","60.03","12"
"04/10/12 16:36:28","51.226","83.0","216.95","406","60.03","11"
"04/10/12 16:41:29","51.2321","81.4","215.93","399","60.03","11"
"04/10/12 16:46:28","51.2382","78.0","215.6","387","60.03","11"
"04/10/12 16:51:29","51.2442","76.1","216.15","377","60.03","11"
"04/10/12 16:56:29","51.2499","71.2","216.19","356","60.03","11"
"04/10/12 17:01:28","51.2553","67.0","216.09","338","60.07","10"
"04/10/12 17:06:28","51.2602","62.3","215.22","317","60.03","10"
"04/10/12 17:11:28","51.2649","69.6","215.85","390","60.03","10"
"04/10/12 17:16:28","51.2692","61.7","215.43","342","60.03","10"
"04/10/12 17:21:27","51.2732","45.6","215.6","184","60.0","10"
"04/10/12 17:26:28","51.2768","50.9","216.07","384","60.07","10"
"04/10/12 17:31:29","51.2801","44.4","215.36","346","60.03","9"
"04/10/12 17:36:27","51.283","30.8","213.4","244","60.03","9"
"04/10/12 17:41:28","51.2856","35.9","214.83","103","60.03","9"
"04/10/12 17:46:29","51.2879","24.0","215.86","75","60.03","9"
"04/10/12 17:51:29","51.2899","34.3","214.78","47","60.03","9"
"04/10/12 17:56:28","51.2916","19.8","214.76","196","60.07","9"
"04/10/12 18:01:28","51.293","12.8","215.21","276","60.03","9"
"04/10/12 18:06:29","51.2941","15.8","214.32","30","60.07","9"
"04/10/12 18:11:28","51.2951","10.4","214.03","3","60.07","9"
"04/10/12 18:16:28","51.2958","15.4","213.81","151","60.03","9"
"04/10/12 18:21:29","51.2964","6.6","214.18","200","60.0","9"
"04/10/12 18:26:29","51.2968","0.0","214.27","0","60.03","9"
"04/10/12 18:31:28","51.2971","10.2","214.56","1","60.0","8"
"04/10/12 18:36:28","51.2973","0.0","214.47","0","60.03","7"
"04/11/12 06:36:39","51.2973","0.0","213.94","0","60.03","0"
"04/11/12 06:41:32","51.2975","15.0","213.72","16","60.03","2"
"04/11/12 06:46:29","51.298","14.1","214.56","32","60.03","2"
"04/11/12 06:51:29","51.2987","14.1","213.32","6","60.03","2"
"04/11/12 06:56:28","51.2996","13.3","212.29","55","60.03","3"
"04/11/12 07:01:28","51.3009","23.3","212.23","286","60.0","3"
"04/11/12 07:06:28","51.3023","13.0","212.45","210","60.07","4"
"04/11/12 07:11:28","51.3037","22.9","213.52","33","60.03","4"
"04/11/12 07:16:29","51.3054","30.7","213.13","41","60.03","4"
"04/11/12 07:21:29","51.3074","30.3","212.99","171","60.03","5"
"04/11/12 07:26:30","51.3098","27.6","213.27","143","60.07","5"
"04/11/12 07:31:28","51.3124","31.3","213.42","150","60.07","5"
"04/11/12 07:36:29","51.3154","46.6","213.56","102","60.03","6"
"04/11/12 07:41:29","51.3187","47.3","214.21","398","60.03","6"
"04/11/12 07:46:30","51.3224","59.7","214.64","113","60.03","6"
"04/11/12 07:51:28","51.3264","54.0","214.2","392","60.03","6"
"04/11/12 07:56:28","51.3308","48.8","215.04","416","60.0","6"
"04/11/12 08:01:29","51.3357","64.5","215.21","331","60.0","7"
"04/11/12 08:06:28","51.341","75.8","214.99","378","60.03","7"
"04/11/12 08:11:28","51.3468","41.5","214.69","258","60.03","8"
"04/11/12 08:16:28","51.352","90.8","215.25","440","60.0","8"
"04/11/12 08:21:29","51.3586","98.3","215.24","474","60.0","8"
"04/11/12 08:26:29","51.3662","109.3","216.0","521","60.03","9"
"04/11/12 08:31:29","51.3708","41.9","213.46","280","60.03","9"
"04/11/12 08:36:28","51.3738","33.6","213.89","338","60.03","9"
"04/11/12 08:41:29","51.3765","32.4","213.62","114","60.03","9"
"04/11/12 08:46:29","51.3794","31.6","214.08","217","60.0","9"
"04/11/12 08:51:29","51.3818","21.5","214.07","58","60.03","8"
"04/11/12 08:56:29","51.3835","13.0","214.77","18","60.03","8"
"04/11/12 09:01:29","51.3854","25.3","214.1","126","60.03","8"
"04/11/12 09:06:28","51.3882","39.5","215.25","301","60.0","8"
"04/11/12 09:11:28","51.39","28.7","214.16","143","60.03","9"
"04/11/12 09:16:28","51.3917","34.6","214.4","66","60.03","9"
"04/11/12 09:21:29","51.3939","35.7","214.53","272","60.03","9"
"04/11/12 09:26:29","51.3966","38.5","214.6","227","60.03","9"
"04/11/12 09:31:29","51.4001","35.6","215.48","98","60.0","9"
"04/11/12 09:36:29","51.403","47.9","215.19","245","60.03","9"
"04/11/12 09:41:29","51.407","54.2","215.72","245","60.03","9"
"04/11/12 09:46:29","51.4109","55.3","213.96","81","60.03","9"
"04/11/12 09:51:29","51.4143","42.9","212.75","133","60.03","9"
"04/11/12 09:56:28","51.4173","36.9","214.71","219","60.03","9"
"04/11/12 10:01:28","51.421","55.5","214.88","138","60.0","9"
"04/11/12 10:06:29","51.4246","43.8","213.91","154","60.0","9"
"04/11/12 10:11:29","51.4281","49.7","213.82","377","60.03","9"
"04/11/12 10:16:28","51.4323","64.3","215.44","331","60.03","9"
"04/11/12 10:21:28","51.4363","41.8","214.47","179","60.0","10"
"04/11/12 10:26:29","51.4405","62.1","215.13","317","60.03","10"
"04/11/12 10:31:28","51.4449","50.1","215.24","77","60.03","10"
"04/11/12 10:36:28","51.4486","47.5","215.34","183","60.03","11"
"04/11/12 10:41:29","51.453","52.6","215.32","241","60.0","11"
"04/11/12 10:46:30","51.4571","56.1","214.89","377","60.0","11"
"04/11/12 10:51:28","51.4621","94.4","216.25","458","60.0","11"
"04/11/12 10:56:29","51.4676","64.7","216.25","326","60.03","11"
"04/11/12 11:01:29","51.4721","56.3","216.03","403","60.03","11"
"04/11/12 11:06:28","51.4772","65.8","215.75","333","60.07","11"
"04/11/12 11:11:29","51.4835","86.0","217.48","419","60.03","11"
"04/11/12 11:16:29","51.4888","64.0","216.52","329","60.03","12"
"04/11/12 11:21:29","51.4942","78.0","216.06","384","60.03","12"
"04/11/12 11:26:29","51.5012","82.8","216.86","405","60.03","12"
"04/11/12 11:31:29","51.5078","143.2","217.52","660","60.0","13"
"04/11/12 11:36:29","51.5149","63.7","216.11","327","60.03","13"
"04/11/12 11:41:28","51.5189","61.4","215.89","313","60.03","13"
"04/11/12 11:46:29","51.525","84.5","216.58","415","60.03","13"
"04/11/12 11:51:29","51.5313","79.2","216.83","391","60.03","13"
"04/11/12 11:56:30","51.5373","67.1","215.61","339","60.03","12"
"04/11/12 12:01:30","51.5428","87.1","215.9","425","60.03","12"
"04/11/12 12:06:28","51.5488","71.9","216.36","356","60.03","12"
"04/11/12 12:11:29","51.554","73.1","214.9","367","60.0","12"
"04/11/12 12:16:29","51.5606","87.5","216.56","424","60.03","12"
"04/11/12 12:21:30","51.5678","76.4","216.04","379","60.03","12"
"04/11/12 12:26:28","51.5739","80.9","215.74","399","60.07","12"
"04/11/12 12:31:28","51.5786","36.5","215.33","327","60.03","13"
"04/11/12 12:36:29","51.5852","65.4","215.33","329","60.0","13"
"04/11/12 12:41:28","51.5925","89.7","215.8","438","60.03","13"
"04/11/12 12:46:29","51.5978","71.9","215.87","363","60.03","13"
"04/11/12 12:51:30","51.6045","84.2","214.47","417","60.03","13"
"04/11/12 12:56:30","51.6104","74.1","216.34","372","60.07","13"
"04/11/12 13:01:29","51.6157","69.7","215.9","351","60.0","13"
"04/11/12 13:06:28","51.6211","76.5","216.3","376","60.0","12"
"04/11/12 13:11:29","51.6266","66.0","215.36","334","60.03","12"
"04/11/12 13:16:29","51.6316","62.0","215.01","320","60.0","12"
"04/11/12 13:21:28","51.6369","68.5","215.66","346","60.03","12"
"04/11/12 13:26:29","51.6419","57.6","216.06","314","60.03","12"
"04/11/12 13:31:30","51.6476","78.0","216.42","388","60.03","11"
"04/11/12 13:36:29","51.6542","108.8","216.45","514","60.03","12"
"04/11/12 13:41:29","51.6609","72.8","215.8","363","60.03","13"
"04/11/12 13:46:28","51.6664","67.9","216.28","340","60.03","12"
"04/11/12 13:51:29","51.6723","73.9","216.65","366","60.0","12"
"04/11/12 13:56:29","51.6776","64.9","214.98","328","60.0","11"
"04/11/12 14:01:29","51.6826","61.7","215.66","315","60.0","11"
"04/11/12 14:06:29","51.6876","69.0","215.88","350","60.07","11"
"04/11/12 14:16:29","51.6967","55.4","215.05","124","60.03","11"
"04/11/12 14:21:29","51.7014","61.9","215.94","319","60.03","11"
"04/11/12 14:26:28","51.7057","61.4","216.5","316","60.03","11"
"04/11/12 14:31:29","51.7105","61.6","215.66","321","60.07","11"
"04/11/12 14:36:28","51.7154","71.5","215.51","409","60.0","11"
"04/11/12 14:41:29","51.7192","48.7","215.64","96","60.03","12"
"04/11/12 14:46:29","51.7237","62.6","215.8","321","60.0","11"
"04/11/12 14:51:28","51.7286","61.3","216.34","317","60.03","11"
"04/11/12 14:56:30","51.7327","39.9","215.32","269","60.03","11"
"04/11/12 15:01:28","51.7366","55.2","215.7","365","60.0","11"
"04/11/12 15:06:29","51.741","61.5","215.39","313","60.0","11"
"04/11/12 15:11:28","51.7463","70.1","216.2","349","60.03","11"
"04/11/12 15:16:29","51.7517","69.7","215.81","351","60.03","11"
"04/11/12 15:21:28","51.757","71.5","216.25","356","60.03","11"
"04/11/12 15:26:28","51.7624","64.2","215.45","326","60.07","11"
"04/11/12 15:31:29","51.7686","73.0","216.06","365","60.0","12"
"04/11/12 15:36:29","51.7735","57.9","215.78","370","60.03","12"
"04/11/12 15:41:28","51.7794","69.3","215.97","348","60.0","13"
"04/11/12 15:46:29","51.7874","157.4","218.07","722","60.03","13"
"04/11/12 15:51:28","51.7933","52.8","215.03","100","60.0","13"
"04/11/12 15:56:29","51.7971","49.1","214.7","314","60.07","13"
"04/11/12 16:01:28","51.8046","121.9","217.7","567","60.03","13"
"04/11/12 16:06:29","51.8115","107.4","217.0","509","60.03","13"
"04/11/12 16:11:29","51.8201","105.4","216.55","506","60.03","14"
"04/11/12 16:16:30","51.8276","101.3","215.74","487","60.03","15"
"04/11/12 16:21:28","51.8353","96.2","216.36","463","60.0","16"
"04/11/12 16:26:28","51.8426","93.0","216.12","448","60.03","16"
"04/11/12 16:31:28","51.8497","89.4","215.78","437","60.03","17"
"04/11/12 16:36:30","51.8566","85.6","215.65","423","60.03","17"
"04/11/12 16:41:29","51.8631","82.0","215.49","399","60.03","17"
"04/11/12 16:46:30","51.8694","78.2","215.21","387","60.0","17"
"04/11/12 16:51:29","51.8752","74.1","214.4","373","60.07","16"
"04/11/12 16:56:29","51.8808","69.4","214.85","348","60.07","17"
"04/11/12 17:01:29","51.886","65.2","215.35","332","60.07","17"
"04/11/12 17:06:29","51.891","61.0","214.69","315","60.03","17"
"04/11/12 17:11:29","51.895","51.5","214.82","155","60.03","16"
"04/11/12 17:16:28","51.8992","56.0","214.76","234","60.03","16"
"04/11/12 17:21:29","51.903","46.3","214.1","111","60.03","16"
"04/11/12 17:26:29","51.9066","39.3","214.88","163","60.03","16"
"04/11/12 17:31:29","51.9098","34.9","214.28","101","60.0","16"
"04/11/12 17:36:30","51.9128","40.0","213.92","294","60.03","15"
"04/11/12 17:41:28","51.9153","35.5","213.95","166","60.03","15"
"04/11/12 17:46:29","51.9176","30.8","213.51","77","60.0","15"
"04/11/12 17:51:29","51.9196","14.1","214.75","89","60.03","15"
"04/11/12 17:56:29","51.9213","20.6","214.46","250","60.03","15"
"04/11/12 18:01:28","51.9228","25.6","214.57","281","60.07","15"
"04/11/12 18:06:28","51.924","10.5","214.08","22","60.0","14"
"04/11/12 18:11:30","51.9249","11.5","213.36","15","60.03","14"
"04/11/12 18:16:29","51.9257","6.1","214.3","0","60.0","13"
"04/11/12 18:21:28","51.9262","14.2","214.12","2","60.03","13"
"04/11/12 18:26:29","51.9267","8.9","213.68","243","60.03","13"
"04/11/12 18:31:29","51.927","0.0","213.76","0","60.03","13"
"04/11/12 18:36:30","51.9272","0.0","213.43","0","60.03","11"
"04/11/12 18:41:29","51.9272","0.0","214.05","0","60.03","11"
"04/12/12 06:51:31","51.9277","0.0","214.77","81","60.03","-1"
"04/12/12 06:56:28","51.9284","14.0","214.33","30","60.03","-1"
"04/12/12 07:01:28","51.9294","13.7","213.77","63","60.0","0"
"04/12/12 07:06:29","51.9306","14.4","213.75","44","60.03","1"
"04/12/12 07:11:29","51.932","15.3","214.13","230","60.0","1"
"04/12/12 07:16:30","51.9338","15.6","214.47","20","60.03","2"
"04/12/12 07:21:28","51.9358","30.3","213.23","120","60.03","2"
"04/12/12 07:26:29","51.9382","29.3","214.15","187","60.03","3"
"04/12/12 07:31:29","51.941","33.1","214.23","107","60.0","3"
"04/12/12 07:36:29","51.944","46.1","214.22","341","60.03","4"
"04/12/12 07:41:29","51.9474","38.9","213.41","255","60.0","4"
"04/12/12 07:46:29","51.9511","55.3","214.17","83","60.03","5"
"04/12/12 07:51:29","51.9551","65.3","215.18","353","60.03","5"
"04/12/12 07:56:30","51.9594","46.4","215.4","320","60.0","6"
"04/12/12 08:01:29","51.9641","62.7","215.85","323","60.0","6"
"04/12/12 08:06:30","51.9692","66.7","214.99","343","60.03","6"
"04/12/12 08:11:30","51.9746","71.7","215.5","358","60.07","7"